Time,TemperatureF,DewpointF,PressureIn,WindDirection,WindDirectionDegrees,WindSpeedMPH,WindSpeedGustMPH,Humidity,HourlyPrecipIn,Conditions,Clouds,dailyrainin,SoftwareType,DateUTC
2013-02-16 00:02:00,42.0,-99.9,29.93,North,359,16.0,21.0,-999,-99.99,,,-99.99,,2013-02-16 05:02:00,
2013-02-16 00:12:00,42.0,-99.9,-100.00,North,3,12.0,17.0,-999,-99.99,,,-99.99,,2013-02-16 05:12:00,
2013-02-16 00:22:00,42.0,-99.9,-100.00,North,4,15.0,19.0,-999,-99.99,,,-99.99,,2013-02-16 05:22:00,
2013-02-16 00:32:00,41.0,-99.9,29.93,North,354,16.0,19.0,-999,-99.99,,,-99.99,,2013-02-16 05:32:00,
2013-02-16 00:42:00,40.0,-99.9,-100.00,NNW,347,17.0,20.0,-999,-99.99,,,-99.99,,2013-02-16 05:42:00,
2013-02-16 00:52:00,40.0,-99.9,-100.00,North,354,16.0,20.0,-999,-99.99,,,-99.99,,2013-02-16 05:52:00,
2013-02-16 01:02:00,40.0,-99.9,-100.00,North,6,12.0,16.0,-999,-99.99,,,-99.99,,2013-02-16 06:02:00,
2013-02-16 01:11:00,39.0,-99.9,-100.00,North,4,13.0,17.0,-999,-99.99,,,-99.99,,2013-02-16 06:11:00,
2013-02-16 01:22:00,39.0,-99.9,-100.00,NNE,12,9.0,13.0,-999,-99.99,,,-99.99,,2013-02-16 06:22:00,
2013-02-16 01:32:00,39.0,-99.9,29.94,North,10,10.0,13.0,-999,-99.99,,,-99.99,,2013-02-16 06:32:00,
2013-02-16 01:42:00,39.0,-99.9,-100.00,NNE,14,9.0,14.0,-999,-99.99,,,-99.99,,2013-02-16 06:42:00,
2013-02-16 01:52:00,38.0,-99.9,-100.00,NNE,16,11.0,17.0,-999,-99.99,,,-99.99,,2013-02-16 06:52:00,
2013-02-16 02:02:00,38.0,-99.9,29.94,North,7,11.0,15.0,-999,-99.99,,,-99.99,,2013-02-16 07:02:00,
2013-02-16 02:11:00,38.0,-99.9,-100.00,NNE,15,9.0,13.0,-999,-99.99,,,-99.99,,2013-02-16 07:11:00,
2013-02-16 02:22:00,37.0,-99.9,-100.00,NNE,18,10.0,14.0,-999,-99.99,,,-99.99,,2013-02-16 07:22:00,
2013-02-16 02:32:00,37.0,-99.9,29.93,NNE,14,10.0,13.0,-999,-99.99,,,-99.99,,2013-02-16 07:32:00,
2013-02-16 02:42:00,37.0,-99.9,-100.00,NNE,19,7.0,10.0,-999,-99.99,,,-99.99,,2013-02-16 07:42:00,
2013-02-16 02:53:00,37.0,-99.9,-100.00,NNE,19,8.0,11.0,-999,-99.99,,,-99.99,,2013-02-16 07:53:00,
2013-02-16 03:02:00,37.0,-99.9,29.93,NNE,17,9.0,12.0,-999,-99.99,,,-99.99,,2013-02-16 08:02:00,
2013-02-16 03:11:00,36.0,-99.9,-100.00,NNE,24,9.0,12.0,-999,-99.99,,,-99.99,,2013-02-16 08:11:00,
2013-02-16 03:22:00,36.0,-99.9,-100.00,NNE,17,8.0,11.0,-999,-99.99,,,-99.99,,2013-02-16 08:22:00,
2013-02-16 03:32:00,36.0,-99.9,29.93,NNE,18,7.0,11.0,-999,-99.99,,,-99.99,,2013-02-16 08:32:00,
2013-02-16 03:42:00,36.0,-99.9,-100.00,NNE,21,9.0,13.0,-999,-99.99,,,-99.99,,2013-02-16 08:42:00,
2013-02-16 03:52:00,36.0,-99.9,-100.00,NNE,22,8.0,13.0,-999,-99.99,,,-99.99,,2013-02-16 08:52:00,
2013-02-16 04:02:00,36.0,-99.9,29.92,NNE,21,8.0,11.0,-999,-99.99,,,-99.99,,2013-02-16 09:02:00,
2013-02-16 04:11:00,35.0,-99.9,-100.00,NNE,21,8.0,12.0,-999,-99.99,,,-99.99,,2013-02-16 09:11:00,
2013-02-16 04:22:00,35.0,-99.9,-100.00,NNE,25,8.0,12.0,-999,-99.99,,,-99.99,,2013-02-16 09:22:00,
2013-02-16 04:32:00,35.0,-99.9,-100.00,NNE,29,7.0,11.0,-999,-99.99,,,-99.99,,2013-02-16 09:32:00,
2013-02-16 04:43:00,35.0,-99.9,-100.00,NNE,31,7.0,11.0,-999,-99.99,,,-99.99,,2013-02-16 09:43:00,
2013-02-16 04:52:00,35.0,-99.9,-100.00,NNE,28,7.0,13.0,-999,-99.99,,,-99.99,,2013-02-16 09:52:00,
2013-02-16 05:01:00,35.0,-99.9,29.91,NNE,28,7.0,12.0,-999,-99.99,,,-99.99,,2013-02-16 10:01:00,
2013-02-16 05:11:00,34.0,-99.9,-100.00,NNE,26,8.0,13.0,-999,-99.99,,,-99.99,,2013-02-16 10:11:00,
2013-02-16 05:22:00,34.0,-99.9,-100.00,NNE,27,6.0,11.0,-999,-99.99,,,-99.99,,2013-02-16 10:22:00,
2013-02-16 05:32:00,34.0,-99.9,29.91,NE,34,7.0,11.0,-999,-99.99,,,-99.99,,2013-02-16 10:32:00,
2013-02-16 05:42:00,35.0,-99.9,-100.00,NNE,21,8.0,11.0,-999,-99.99,,,-99.99,,2013-02-16 10:42:00,
2013-02-16 05:52:00,35.0,-99.9,-100.00,NNE,21,8.0,12.0,-999,-99.99,,,-99.99,,2013-02-16 10:52:00,
2013-02-16 06:02:00,35.0,-99.9,29.93,NNE,14,10.0,13.0,-999,-99.99,,,-99.99,,2013-02-16 11:02:00,
2013-02-16 06:11:00,35.0,-99.9,-100.00,NNE,20,9.0,15.0,-999,-99.99,,,-99.99,,2013-02-16 11:11:00,
2013-02-16 06:22:00,35.0,-99.9,-100.00,NNE,21,12.0,15.0,-999,-99.99,,,-99.99,,2013-02-16 11:22:00,
2013-02-16 06:32:00,35.0,-99.9,-100.00,NNE,17,9.0,14.0,-999,-99.99,,,-99.99,,2013-02-16 11:32:00,
2013-02-16 06:42:00,35.0,-99.9,29.92,NNE,16,9.0,14.0,-999,-99.99,,,-99.99,,2013-02-16 11:42:00,
2013-02-16 06:52:00,35.0,-99.9,-100.00,NNE,21,9.0,14.0,-999,-99.99,,,-99.99,,2013-02-16 11:52:00,
2013-02-16 07:02:00,35.0,-99.9,29.93,North,11,8.0,14.0,-999,-99.99,,,-99.99,,2013-02-16 12:02:00,
2013-02-16 07:12:00,34.0,-99.9,-100.00,NNE,25,12.0,17.0,-999,-99.99,,,-99.99,,2013-02-16 12:12:00,
2013-02-16 07:22:00,34.0,-99.9,-100.00,NNE,30,8.0,15.0,-999,-99.99,,,-99.99,,2013-02-16 12:22:00,
2013-02-16 07:32:00,34.0,-99.9,29.92,NNE,30,9.0,13.0,-999,-99.99,,,-99.99,,2013-02-16 12:32:00,
2013-02-16 07:42:00,34.0,-99.9,-100.00,NNE,30,8.0,11.0,-999,-99.99,,,-99.99,,2013-02-16 12:42:00,
2013-02-16 07:52:00,34.0,-99.9,-100.00,NE,44,4.0,9.0,-999,-99.99,,,-99.99,,2013-02-16 12:52:00,
2013-02-16 08:02:00,34.0,-99.9,29.93,NE,35,5.0,9.0,-999,-99.99,,,-99.99,,2013-02-16 13:02:00,
2013-02-16 08:12:00,34.0,-99.9,-100.00,NNE,28,4.0,9.0,-999,-99.99,,,-99.99,,2013-02-16 13:12:00,
2013-02-16 08:22:00,34.0,-99.9,-100.00,NNE,27,7.0,12.0,-999,-99.99,,,-99.99,,2013-02-16 13:22:00,
2013-02-16 08:32:00,34.0,-99.9,29.94,NNE,24,8.0,12.0,-999,-99.99,,,-99.99,,2013-02-16 13:32:00,
2013-02-16 08:42:00,34.0,-99.9,-100.00,NE,38,6.0,11.0,-999,-99.99,,,-99.99,,2013-02-16 13:42:00,
2013-02-16 08:52:00,34.0,-99.9,-100.00,NNE,27,7.0,11.0,-999,-99.99,,,-99.99,,2013-02-16 13:52:00,
2013-02-16 09:01:00,34.0,-99.9,-100.00,NNE,25,10.0,13.0,-999,-99.99,,,-99.99,,2013-02-16 14:01:00,
2013-02-16 09:11:00,34.0,-99.9,-100.00,NNE,19,8.0,13.0,-999,-99.99,,,-99.99,,2013-02-16 14:11:00,
2013-02-16 09:22:00,34.0,-99.9,-100.00,NNE,19,8.0,12.0,-999,-99.99,,,-99.99,,2013-02-16 14:22:00,
2013-02-16 09:32:00,34.0,-99.9,29.93,NNE,16,8.0,12.0,-999,-99.99,,,-99.99,,2013-02-16 14:32:00,
2013-02-16 09:42:00,34.0,-99.9,-100.00,North,11,8.0,12.0,-999,-99.99,,,-99.99,,2013-02-16 14:42:00,
2013-02-16 09:52:00,34.0,-99.9,-100.00,NNE,21,10.0,16.0,-999,-99.99,,,-99.99,,2013-02-16 14:52:00,
2013-02-16 10:02:00,34.0,-99.9,29.93,NNE,28,10.0,15.0,-999,-99.99,,,-99.99,,2013-02-16 15:02:00,
2013-02-16 10:11:00,34.0,-99.9,-100.00,NNE,25,9.0,14.0,-999,-99.99,,,-99.99,,2013-02-16 15:11:00,
2013-02-16 10:22:00,34.0,-99.9,-100.00,NNE,20,10.0,15.0,-999,-99.99,,,-99.99,,2013-02-16 15:22:00,
2013-02-16 10:32:00,34.0,-99.9,29.92,NNE,21,8.0,15.0,-999,-99.99,,,-99.99,,2013-02-16 15:32:00,
2013-02-16 10:42:00,35.0,-99.9,-100.00,NNE,21,8.0,15.0,-999,-99.99,,,-99.99,,2013-02-16 15:42:00,
2013-02-16 10:52:00,35.0,-99.9,-100.00,NNE,18,9.0,14.0,-999,-99.99,,,-99.99,,2013-02-16 15:52:00,
2013-02-16 11:02:00,35.0,-99.9,-100.00,NNE,14,8.0,13.0,-999,-99.99,,,-99.99,,2013-02-16 16:02:00,
2013-02-16 11:11:00,35.0,-99.9,-100.00,NNE,25,10.0,14.0,-999,-99.99,,,-99.99,,2013-02-16 16:11:00,
2013-02-16 11:22:00,35.0,-99.9,-100.00,NNE,27,9.0,13.0,-999,-99.99,,,-99.99,,2013-02-16 16:22:00,
2013-02-16 11:32:00,35.0,-99.9,29.91,NNE,25,8.0,15.0,-999,-99.99,,,-99.99,,2013-02-16 16:32:00,
2013-02-16 11:42:00,35.0,-99.9,-100.00,NNE,24,8.0,14.0,-999,-99.99,,,-99.99,,2013-02-16 16:42:00,
2013-02-16 11:52:00,35.0,-99.9,-100.00,NNE,21,7.0,11.0,-999,-99.99,,,-99.99,,2013-02-16 16:52:00,
2013-02-16 12:01:00,35.0,-99.9,29.91,NNE,21,7.0,12.0,-999,-99.99,,,-99.99,,2013-02-16 17:01:00,
2013-02-16 12:11:00,36.0,-99.9,-100.00,NNE,29,8.0,12.0,-999,-99.99,,,-99.99,,2013-02-16 17:11:00,
2013-02-16 12:22:00,36.0,-99.9,-100.00,NNE,25,7.0,11.0,-999,-99.99,,,-99.99,,2013-02-16 17:22:00,
2013-02-16 12:32:00,36.0,-99.9,29.89,NNE,28,8.0,13.0,-999,-99.99,,,-99.99,,2013-02-16 17:32:00,
2013-02-16 12:42:00,37.0,-99.9,-100.00,NNE,26,6.0,11.0,-999,-99.99,,,-99.99,,2013-02-16 17:42:00,
2013-02-16 12:52:00,37.0,-99.9,-100.00,NNE,26,7.0,10.0,-999,-99.99,,,-99.99,,2013-02-16 17:52:00,
2013-02-16 13:02:00,37.0,-99.9,29.88,NNE,25,8.0,11.0,-999,-99.99,,,-99.99,,2013-02-16 18:02:00,
2013-02-16 13:11:00,37.0,-99.9,-100.00,NNE,22,7.0,11.0,-999,-99.99,,,-99.99,,2013-02-16 18:11:00,
2013-02-16 13:22:00,37.0,-99.9,-100.00,NNE,18,7.0,11.0,-999,-99.99,,,-99.99,,2013-02-16 18:22:00,
2013-02-16 13:33:00,37.0,-99.9,29.88,NNE,17,6.0,10.0,-999,-99.99,,,-99.99,,2013-02-16 18:33:00,
2013-02-16 13:42:00,38.0,-99.9,-100.00,NNE,19,6.0,9.0,-999,-99.99,,,-99.99,,2013-02-16 18:42:00,
2013-02-16 13:52:00,38.0,-99.9,-100.00,NNE,22,5.0,9.0,-999,-99.99,,,-99.99,,2013-02-16 18:52:00,
2013-02-16 14:02:00,37.0,-99.9,-100.00,NNE,29,7.0,11.0,-999,-99.99,,,-99.99,,2013-02-16 19:02:00,
2013-02-16 14:11:00,38.0,-99.9,-100.00,NNE,18,6.0,11.0,-999,-99.99,,,-99.99,,2013-02-16 19:11:00,
2013-02-16 14:22:00,38.0,-99.9,-100.00,NNE,15,6.0,9.0,-999,-99.99,,,-99.99,,2013-02-16 19:22:00,
2013-02-16 14:32:00,37.0,-99.9,29.86,NNE,16,9.0,11.0,-999,-99.99,,,-99.99,,2013-02-16 19:32:00,
2013-02-16 14:42:00,37.0,-99.9,-100.00,NNE,12,7.0,11.0,-999,-99.99,,,-99.99,,2013-02-16 19:42:00,
2013-02-16 14:52:00,37.0,-99.9,-100.00,NNE,17,8.0,11.0,-999,-99.99,,,-99.99,,2013-02-16 19:52:00,
2013-02-16 15:02:00,37.0,-99.9,29.84,NNE,16,9.0,12.0,-999,-99.99,,,-99.99,,2013-02-16 20:02:00,
2013-02-16 15:11:00,38.0,-99.9,-100.00,NNE,17,8.0,12.0,-999,-99.99,,,-99.99,,2013-02-16 20:11:00,
2013-02-16 15:22:00,38.0,-99.9,-100.00,NNE,18,10.0,12.0,-999,-99.99,,,-99.99,,2013-02-16 20:22:00,
2013-02-16 15:32:00,37.0,-99.9,-100.00,NNE,16,9.0,14.0,-999,-99.99,,,-99.99,,2013-02-16 20:32:00,
2013-02-16 15:42:00,37.0,-99.9,-100.00,NNE,17,9.0,12.0,-999,-99.99,,,-99.99,,2013-02-16 20:42:00,
2013-02-16 15:52:00,37.0,-99.9,-100.00,North,4,11.0,14.0,-999,-99.99,,,-99.99,,2013-02-16 20:52:00,
2013-02-16 16:02:00,37.0,-99.9,29.84,NNE,13,9.0,13.0,-999,-99.99,,,-99.99,,2013-02-16 21:02:00,
2013-02-16 16:11:00,37.0,-99.9,-100.00,North,359,13.0,16.0,-999,-99.99,,,-99.99,,2013-02-16 21:11:00,
2013-02-16 16:22:00,36.0,-99.9,-100.00,North,3,13.0,16.0,-999,-99.99,,,-99.99,,2013-02-16 21:22:00,
2013-02-16 16:32:00,36.0,-99.9,29.84,North,1,13.0,17.0,-999,-99.99,,,-99.99,,2013-02-16 21:32:00,
2013-02-16 16:42:00,36.0,-99.9,-100.00,North,6,11.0,15.0,-999,-99.99,,,-99.99,,2013-02-16 21:42:00,
2013-02-16 16:52:00,36.0,-99.9,-100.00,North,5,13.0,15.0,-999,-99.99,,,-99.99,,2013-02-16 21:52:00,
2013-02-16 17:02:00,36.0,-99.9,-100.00,North,7,12.0,19.0,-999,-99.99,,,-99.99,,2013-02-16 22:02:00,
2013-02-16 17:11:00,36.0,-99.9,-100.00,North,4,14.0,18.0,-999,-99.99,,,-99.99,,2013-02-16 22:11:00,
2013-02-16 17:22:00,36.0,-99.9,-100.00,NNE,14,11.0,15.0,-999,-99.99,,,-99.99,,2013-02-16 22:22:00,
2013-02-16 17:32:00,36.0,-99.9,29.83,NNE,18,10.0,14.0,-999,-99.99,,,-99.99,,2013-02-16 22:32:00,
2013-02-16 17:42:00,36.0,-99.9,-100.00,NNE,16,11.0,15.0,-999,-99.99,,,-99.99,,2013-02-16 22:42:00,
2013-02-16 17:52:00,36.0,-99.9,-100.00,NNE,16,11.0,14.0,-999,-99.99,,,-99.99,,2013-02-16 22:52:00,
2013-02-16 18:02:00,36.0,-99.9,29.82,NNE,19,10.0,16.0,-999,-99.99,,,-99.99,,2013-02-16 23:02:00,
2013-02-16 18:11:00,35.0,-99.9,-100.00,NNE,15,12.0,16.0,-999,-99.99,,,-99.99,,2013-02-16 23:11:00,
2013-02-16 18:22:00,35.0,-99.9,-100.00,NNE,16,12.0,15.0,-999,-99.99,,,-99.99,,2013-02-16 23:22:00,
2013-02-16 18:32:00,35.0,-99.9,-100.00,NNE,13,11.0,15.0,-999,-99.99,,,-99.99,,2013-02-16 23:32:00,
2013-02-16 18:42:00,35.0,-99.9,-100.00,NNE,13,10.0,14.0,-999,-99.99,,,-99.99,,2013-02-16 23:42:00,
2013-02-16 18:52:00,35.0,-99.9,-100.00,NNE,15,14.0,19.0,-999,-99.99,,,-99.99,,2013-02-16 23:52:00,
2013-02-16 19:02:00,35.0,-99.9,29.81,NNE,16,15.0,21.0,-999,-99.99,,,-99.99,,2013-02-17 00:02:00,
2013-02-16 19:12:00,35.0,-99.9,-100.00,NNE,13,11.0,17.0,-999,-99.99,,,-99.99,,2013-02-17 00:12:00,
2013-02-16 19:22:00,35.0,-99.9,-100.00,North,10,11.0,16.0,-999,-99.99,,,-99.99,,2013-02-17 00:22:00,
2013-02-16 19:32:00,35.0,-99.9,29.81,NNE,16,13.0,18.0,-999,-99.99,,,-99.99,,2013-02-17 00:32:00,
2013-02-16 19:42:00,34.0,-99.9,-100.00,NNE,22,11.0,16.0,-999,-99.99,,,-99.99,,2013-02-17 00:42:00,
2013-02-16 19:52:00,34.0,-99.9,-100.00,NNE,20,11.0,17.0,-999,-99.99,,,-99.99,,2013-02-17 00:52:00,
2013-02-16 20:01:00,34.0,-99.9,29.81,NNE,17,9.0,17.0,-999,-99.99,,,-99.99,,2013-02-17 01:01:00,
2013-02-16 20:11:00,34.0,-99.9,-100.00,NNE,16,10.0,15.0,-999,-99.99,,,-99.99,,2013-02-17 01:11:00,
2013-02-16 20:22:00,34.0,-99.9,-100.00,NNE,18,10.0,17.0,-999,-99.99,,,-99.99,,2013-02-17 01:22:00,
2013-02-16 20:32:00,34.0,-99.9,29.81,NNE,25,11.0,16.0,-999,-99.99,,,-99.99,,2013-02-17 01:32:00,
2013-02-16 20:42:00,33.0,-99.9,-100.00,NNE,29,12.0,21.0,-999,-99.99,,,-99.99,,2013-02-17 01:42:00,
2013-02-16 20:52:00,33.0,-99.9,-100.00,NNE,27,12.0,19.0,-999,-99.99,,,-99.99,,2013-02-17 01:52:00,
2013-02-16 21:01:00,33.0,-99.9,29.80,NNE,16,12.0,22.0,-999,-99.99,,,-99.99,,2013-02-17 02:01:00,
2013-02-16 21:11:00,33.0,-99.9,-100.00,NNE,28,13.0,18.0,-999,-99.99,,,-99.99,,2013-02-17 02:11:00,
2013-02-16 21:21:00,33.0,-99.9,-100.00,NNE,19,16.0,23.0,-999,-99.99,,,-99.99,,2013-02-17 02:21:00,
2013-02-16 21:32:00,33.0,-99.9,29.79,NNE,20,13.0,26.0,-999,-99.99,,,-99.99,,2013-02-17 02:32:00,
2013-02-16 21:42:00,33.0,-99.9,-100.00,NNE,21,12.0,21.0,-999,-99.99,,,-99.99,,2013-02-17 02:42:00,
2013-02-16 21:52:00,32.0,-99.9,-100.00,NNE,26,15.0,20.0,-999,-99.99,,,-99.99,,2013-02-17 02:52:00,
2013-02-16 22:02:00,32.0,-99.9,29.79,NNE,19,12.0,23.0,-999,-99.99,,,-99.99,,2013-02-17 03:02:00,
2013-02-16 22:11:00,32.0,-99.9,-100.00,NNE,24,15.0,24.0,-999,-99.99,,,-99.99,,2013-02-17 03:11:00,
2013-02-16 22:21:00,-999.0,-99.9,-100.00,North,11,13.0,21.0,-999,-99.99,,,-99.99,,2013-02-17 03:21:00,
2013-02-16 22:32:00,-999.0,-99.9,29.78,NNE,24,15.0,22.0,-999,-99.99,,,-99.99,,2013-02-17 03:32:00,
2013-02-16 22:42:00,-999.0,-99.9,-100.00,NNE,19,13.0,19.0,-999,-99.99,,,-99.99,,2013-02-17 03:42:00,
2013-02-16 22:52:00,-999.0,-99.9,-100.00,NNE,19,12.0,19.0,-999,-99.99,,,-99.99,,2013-02-17 03:52:00,
2013-02-16 23:01:00,32.0,-99.9,29.75,NNE,19,14.0,21.0,-999,-99.99,,,-99.99,,2013-02-17 04:01:00,
2013-02-16 23:11:00,-999.0,-99.9,-100.00,NNE,21,13.0,20.0,-999,-99.99,,,-99.99,,2013-02-17 04:11:00,
2013-02-16 23:22:00,-999.0,-99.9,-100.00,NNE,18,10.0,22.0,-999,-99.99,,,-99.99,,2013-02-17 04:22:00,
2013-02-16 23:32:00,-999.0,-99.9,-100.00,NNE,15,16.0,24.0,-999,-99.99,,,-99.99,,2013-02-17 04:32:00,
2013-02-16 23:42:00,-999.0,-99.9,-100.00,NNE,17,14.0,27.0,-999,-99.99,,,-99.99,,2013-02-17 04:42:00,
2013-02-16 23:52:00,-999.0,-99.9,-100.00,NNE,15,14.0,21.0,-999,-99.99,,,-99.99,,2013-02-17 04:52:00,